Tracking 19832 objects as of 24-Aug-2019
HD Live streaming from Space Station
objects crossing your sky now

SL-14 R/B

Track SL-14 R/B now!
10-day predictions
SL-14 R/B is classified as:


NORAD ID: 21423
Int'l Code: 1991-042B
Perigee: 624.4 km
Apogee: 650.0 km
Inclination: 82.5 °
Period: 97.3 minutes
Semi major axis: 7008 km
RCS: 4.7234 m2 (large)
Launch date: June 13, 1991
Source: Commonwealth of Independent States (former USSR) (CIS)
Launch site: PLESETSK MISSILE AND SPACE COMPLEX (PKMTR)

Note: This is a ROCKET BODY
aabbcc
Your satellite tracking list
Your tracking list is empty




NASA's NSSDC Master Catalog

Two Line Element Set (TLE):
1 21423U 91042B   19235.78888363 +.00000031 +00000-0 +10065-5 0  9990
2 21423 082.4939 296.0333 0018259 153.3122 206.9035 14.79768724499492
Source of the keplerian elements: AFSPC